Missoula, MT

9:41 AM MDT on August 28, 2016 (GMT -0600)
Missoula International

Weather History for KMSO - February, 2014

Change the Weather History Date:

Wednesday, February 5, 2014

  Actual Average Record
Temperature  
Mean Temperature -2 °F 28 °F  
Max Temperature 3 °F 36 °F 50 °F (1991)
Min Temperature -7 °F 20 °F -27 °F (1982)
Degree Days  
Heating Degree Days 67 37  
Month to date heating degree days 269 185  
Since 1 July heating degree days 4528 4574  
Cooling Degree Days 0 0  
Month to date cooling degree days 0 0  
Year to date cooling degree days 0 0  
Moisture  
Dew Point -17 °F    
Average Humidity 52    
Maximum Humidity 59    
Minimum Humidity 45    
Precipitation  
Precipitation 0.00 in 0.02 in 0.46 in (1926)
Month to date precipitation 0.03 0.12  
Year to date precipitation 0.91 0.97  
Snow  
Snow 0.00 in - - ()
Month to date snowfall 0.5  
Year to date snowfall 7.0  
Since 1 July snowfall 20.9  
Snow Depth 4.00 in    
Sea Level Pressure  
Sea Level Pressure 30.75 in    
Wind  
Wind Speed 18 mph (SE)    
Max Wind Speed 23 mph    
Max Gust Speed 28 mph    
Visibility 10 miles    
Events      
T = Trace of Precipitation, MM = Missing Value Source: NWS Daily Summary

Daily Weather History Graph

Daily Weather History Graph

Search for Another Location

Airport or City:

Trip Planner

Search our weather history database for the weather conditions in past years. The results will help you decide how hot, cold, wet, or windy it might be!

Date:

Astronomy

Feb. 05, 2014 Rise Set
Actual Time 7:55 AM MST 5:45 PM MST
Civil Twilight 7:23 AM MST 6:17 PM MST
Nautical Twilight 6:47 AM MST 6:54 PM MST
Astronomical Twilight 6:11 AM MST 7:29 PM MST
Moon 10:45 AM MST (2/5) 12:08 AM MST (2/5)
Length of Visible Light 10h 54m
Length of Day
9h 50m
Waxing Crescent, 40% of the Moon is Illuminated
Feb 5
Waxing Crescent
Feb 6
First Quarter
Feb 14
Full
Feb 22
Last Quarter
Mar 1
New

Hourly Weather History & Observations

Time (MST) Temp. Windchill Dew Point Humidity Pressure Visibility Wind Dir Wind Speed Gust Speed Precip Events Conditions
12:53 AM -2.9 °F -20.8 °F -18.0 °F 49% 30.71 in 10.0 mi ESE 11.5 mph 20.7 mph N/A   Clear
1:53 AM -5.1 °F -25.9 °F -18.0 °F 54% 30.73 in 10.0 mi SE 15.0 mph - N/A   Scattered Clouds
2:53 AM -5.1 °F -27.2 °F -18.9 °F 51% 30.75 in 10.0 mi SE 17.3 mph - N/A   Overcast
3:53 AM -4.0 °F -25.8 °F -18.0 °F 51% 30.75 in 10.0 mi ESE 17.3 mph - N/A   Overcast
4:53 AM -4.0 °F -28.6 °F -17.0 °F 54% 30.76 in 10.0 mi ESE 23.0 mph - N/A   Overcast
5:53 AM -5.1 °F -25.9 °F -16.1 °F 59% 30.77 in 10.0 mi ESE 15.0 mph - N/A   Overcast
6:53 AM -5.1 °F -28.4 °F -18.0 °F 54% 30.78 in 10.0 mi SE 19.6 mph - N/A   Overcast
7:53 AM -7.1 °F -31.0 °F -20.0 °F 53% 30.80 in 10.0 mi ESE 19.6 mph - N/A   Partly Cloudy
8:53 AM -7.1 °F -31.0 °F -20.0 °F 53% 30.83 in 10.0 mi ESE 19.6 mph - N/A   Clear
9:53 AM -5.1 °F -27.8 °F -18.9 °F 51% 30.84 in 10.0 mi SE 18.4 mph - N/A   Clear
10:53 AM -2.9 °F -26.1 °F -18.0 °F 49% 30.82 in 10.0 mi SE 20.7 mph - N/A   Partly Cloudy
11:53 AM -2.0 °F -25.0 °F -18.0 °F 47% 30.81 in 10.0 mi SE 20.7 mph - N/A   Partly Cloudy
12:53 PM -0.0 °F -21.8 °F -16.1 °F 47% 30.79 in 10.0 mi SE 19.6 mph - N/A   Clear
1:53 PM 1.0 °F -19.9 °F -15.0 °F 47% 30.76 in 10.0 mi SE 18.4 mph - N/A   Clear
2:53 PM 1.9 °F -18.1 °F -14.1 °F 47% 30.72 in 10.0 mi SE 17.3 mph - N/A   Clear
3:53 PM 1.9 °F -18.7 °F -15.0 °F 45% 30.72 in 10.0 mi SE 18.4 mph - N/A   Clear
4:53 PM 1.9 °F -17.5 °F -14.1 °F 47% 30.70 in 10.0 mi SE 16.1 mph - N/A   Clear
5:53 PM -0.0 °F -18.7 °F -15.0 °F 49% 30.71 in 10.0 mi ESE 13.8 mph - N/A   Clear
6:53 PM -0.9 °F -19.9 °F -16.1 °F 49% 30.72 in 10.0 mi ESE 13.8 mph - N/A   Clear
7:53 PM -2.0 °F -24.4 °F -17.0 °F 49% 30.72 in 10.0 mi ESE 19.6 mph - N/A   Clear
8:53 PM -2.9 °F -25.6 °F -17.0 °F 51% 30.72 in 10.0 mi ESE 19.6 mph - N/A   Clear
9:53 PM -4.0 °F -28.6 °F -18.0 °F 51% 30.70 in 10.0 mi ESE 23.0 mph - N/A   Clear
10:53 PM -5.1 °F -27.8 °F -18.9 °F 51% 30.69 in 10.0 mi ESE 18.4 mph - N/A   Clear
11:53 PM -6.0 °F -29.0 °F -18.9 °F 54% 30.69 in 10.0 mi ESE 18.4 mph - N/A   Clear